Helicity
35 27 23 48 73 65 76 78 74 167 86 17 -2 8 4 48 53 50 37 71 59 51 47 52 90 106 102 117 130 127 115 127 128 131 133 145 152 129 109 97 92 87 76 61 56 57 55 60 64
50 33 46 61 90 79 96 68 80 144 98 -6 11 35 52 49 29 10 48 20 30 26 37 75 108 137 123 107 114 124 117 107 110 122 125 124 142 131 113 98 87 84 77 67 63 60 55 63 65
45 45 74 85 81 65 60 67 108 168 113 19 17 36 45 18 11 1 2 44 62 34 15 38 107 152 141 125 107 112 118 110 104 108 119 120 125 137 125 110 95 86 82 71 64 63 67 66 64
68 80 88 91 54 34 41 77 65 173 156 46 21 51 101 51 26 23 50 92 75 49 32 43 70 133 143 121 117 106 107 107 102 99 107 115 120 126 129 113 104 94 84 77 69 68 68 63 61
76 100 117 91 40 37 33 37 83 165 125 42 35 69 112 99 74 131 105 93 86 44 24 56 71 95 126 118 102 96 97 98 101 91 99 107 117 120 128 118 104 97 92 81 75 66 71 69 62
113 105 138 76 60 30 9 55 55 128 168 171 116 73 105 105 133 110 120 128 114 92 54 44 51 73 99 122 120 93 86 87 87 92 95 102 107 113 115 117 106 96 97 87 78 79 73 71 68
106 125 91 73 36 20 7 59 95 152 212 198 182 176 65 95 98 122 115 142 127 103 100 70 49 49 77 101 115 126 99 84 82 91 96 95 95 93 96 97 103 96 92 88 85 83 77 71 68
115 114 90 64 70 30 8 27 12 57 247 158 115 265 174 51 65 97 96 92 97 90 100 97 87 68 70 90 104 114 119 98 89 95 100 104 93 87 82 85 90 100 90 94 89 86 83 84 77
108 122 93 68 51 11 10 27 13 67 122 137 97 109 54 61 62 85 143 138 137 117 82 83 90 72 66 63 89 107 101 107 100 98 103 117 124 109 94 94 91 98 95 98 97 94 87 85 83
106 119 32 47 48 10 6 3 1 21 105 106 152 116 50 59 69 89 115 149 138 123 91 88 114 116 115 94 77 109 122 129 137 130 134 143 127 132 123 96 79 82 88 94 95 94 92 104 95
118 105 76 78 39 26 -36 -26 -7 -1 3 58 82 71 86 43 43 73 101 151 174 112 183 147 168 168 149 127 104 108 147 157 147 138 124 130 144 148 134 125 111 110 96 118 104 111 122 126 110
140 99 88 49 75 17 -4 -28 -24 -11 47 41 56 60 69 80 67 75 96 113 210 168 106 215 229 240 219 173 103 87 102 147 139 141 135 145 148 144 132 141 134 132 153 147 152 147 139 136 127
120 108 129 82 32 17 21 36 23 6 24 7 0 36 66 79 92 113 117 185 201 325 364 390 376 386 336 266 152 80 74 128 146 114 109 109 120 120 125 136 140 143 176 170 173 168 168 156 149
149 112 56 23 24 51 41 58 115 72 45 35 27 21 17 9 69 113 156 163 309 426 541 568 609 546 480 396 311 205 171 157 143 130 119 117 114 115 123 122 122 130 176 179 193 188 183 171 169
136 81 56 45 63 54 89 74 88 152 118 120 119 69 77 100 98 101 149 239 416 554 601 681 653 531 461 391 339 263 205 180 179 166 213 143 89 90 113 124 134 143 178 189 183 192 198 168 165
133 130 77 89 52 38 40 110 124 113 218 174 94 79 61 5 48 30 -20 273 553 689 761 747 651 572 490 409 319 256 223 195 178 142 140 148 149 223 139 144 150 136 184 192 180 178 180 157 144
152 109 84 98 89 110 105 43 100 128 46 69 71 41 14 9 -51 18 159 389 599 760 778 781 697 569 445 356 254 224 217 212 166 135 114 110 92 103 134 191 140 145 180 191 198 123 176 165 156
59 78 85 88 76 106 73 50 85 96 85 83 124 85 40 55 74 222 412 624 805 833 836 759 675 558 426 315 224 207 216 230 205 181 127 104 80 75 59 81 122 172 144 158 204 141 156 193 90
161 117 111 109 89 110 79 91 92 83 79 111 73 93 84 185 260 412 584 711 839 841 810 731 603 509 399 331 232 151 107 163 189 186 166 129 87 98 78 48 61 88 125 124 161 177 157 189 191
130 102 87 87 42 78 89 89 114 28 13 48 75 98 160 270 402 508 727 763 693 710 677 587 492 390 308 200 98 100 113 82 78 136 163 124 107 93 92 82 70 89 111 151 127 143 173 189 243
95 109 98 94 73 58 123 79 78 -11 17 -3 -6 58 152 292 465 570 693 675 604 508 470 438 415 348 296 208 146 85 96 83 53 80 90 127 135 107 70 77 69 68 100 127 160 161 154 171 209
110 98 117 121 125 104 126 107 88 58 88 123 101 221 381 593 656 674 705 564 625 412 327 364 381 348 317 230 128 122 40 37 49 70 60 65 72 94 111 89 76 64 67 117 133 155 171 175 217
109 158 156 145 147 153 130 137 114 125 99 30 79 199 400 541 562 615 550 455 429 585 362 294 348 345 284 253 160 71 72 40 14 19 44 49 48 82 93 97 122 100 87 94 134 163 178 195 211
178 218 163 151 182 223 110 109 146 66 21 64 79 299 501 617 615 576 544 462 547 382 360 412 310 300 235 205 170 147 94 70 35 28 9 1 16 40 82 102 98 111 124 105 111 143 192 198 244
274 215 205 223 215 180 155 132 205 134 145 252 347 490 643 630 685 760 608 568 414 255 131 155 237 157 139 152 145 128 120 91 62 36 5 30 2 3 44 84 101 105 100 113 125 131 145 216 263
228 184 234 216 221 189 188 126 171 98 73 204 313 408 369 305 235 272 440 477 321 260 143 105 111 101 143 130 90 72 71 64 49 50 34 14 6 12 25 38 61 81 91 90 104 107 106 140 214
147 217 174 229 207 187 143 185 119 117 112 83 76 28 -6 -19 67 159 113 83 176 78 83 59 91 76 67 40 46 74 72 88 90 87 54 43 29 29 31 29 23 47 81 74 94 105 131 143 198
150 158 217 271 238 226 171 170 152 109 110 120 62 28 19 28 10 84 67 19 -16 16 3 41 59 85 80 60 64 78 85 84 79 74 81 62 47 44 37 32 25 33 46 69 85 87 128 125 161
280 275 265 238 241 216 200 127 119 128 88 57 24 38 35 30 29 -4 -18 -23 -28 -26 -4 -5 -19 -1 45 40 40 54 82 84 84 74 64 63 50 48 46 40 26 25 49 63 74 105 82 135 131
234 257 363 288 214 216 205 154 160 129 42 51 58 89 63 43 13 0 41 -9 -19 -10 16 40 59 63 57 61 62 81 96 92 103 102 84 74 74 66 45 35 33 48 64 74 78 107 132 85 128
Wind_Speed
41 37 31 32 32 32 32 30 29 46 42 35 34 29 24 23 24 34 26 24 22 14 10 7 7 6 4 2 3 5 7 10 12 14 17 19 21 22 24 24 23 23 23 22 20 16 15 16 18
39 32 33 30 32 34 33 26 28 48 49 47 39 32 36 35 32 29 25 21 19 16 10 4 3 4 4 1 1 2 4 6 8 10 13 15 17 19 21 22 23 23 22 20 19 15 14 14 16
33 33 32 33 32 29 29 28 52 57 54 46 38 36 31 31 29 20 28 19 18 16 13 7 2 5 5 5 4 2 1 2 5 8 10 12 13 15 17 19 21 22 20 19 17 15 13 13 14
33 33 33 33 32 32 29 44 56 63 61 39 30 26 28 34 26 25 25 20 20 18 14 9 5 5 8 8 8 7 5 3 1 4 6 8 9 12 14 16 17 17 18 18 16 14 13 12 13
34 34 38 39 39 33 32 41 49 55 51 35 30 33 32 34 33 20 21 20 23 21 16 11 6 7 10 11 11 10 9 8 6 5 4 5 6 7 10 12 12 13 14 15 14 12 12 12 12
36 33 42 43 42 37 41 40 44 52 54 47 48 37 32 36 26 23 26 27 28 21 20 16 9 10 11 10 13 13 13 12 11 10 8 7 7 6 6 7 7 8 9 10 10 10 10 10 10
33 35 40 42 46 47 33 42 47 54 54 47 59 47 40 30 26 27 29 30 31 25 21 19 16 15 16 15 16 18 17 16 15 14 13 11 10 9 7 5 4 4 4 5 6 7 8 8 8
30 33 37 37 41 43 29 50 45 50 63 52 52 46 52 38 22 25 29 31 31 31 27 24 21 20 19 19 19 20 20 20 20 19 18 16 14 13 12 9 6 4 3 1 1 3 5 7 8
30 39 41 42 40 36 49 60 45 52 44 61 47 51 55 41 43 44 43 38 35 36 37 32 30 28 27 24 24 24 24 23 22 21 21 20 20 19 17 15 12 9 8 6 4 4 5 7 8
37 43 44 37 41 56 72 62 65 54 63 60 61 68 52 55 50 49 49 47 39 35 34 30 28 29 33 34 32 31 34 32 29 27 26 25 26 26 24 22 19 16 13 11 10 9 8 8 10
46 54 49 53 64 63 65 72 64 54 55 61 71 79 79 61 63 60 62 47 41 37 33 28 26 23 26 33 38 36 34 36 36 35 33 33 33 33 30 30 27 24 22 21 19 17 15 13 12
57 55 60 62 64 72 77 74 72 64 65 71 77 81 75 82 80 69 63 54 49 35 37 33 29 26 25 29 35 40 35 33 37 37 38 38 39 39 38 36 35 33 29 27 25 24 23 20 18
60 62 66 75 76 81 80 77 81 82 76 69 75 77 83 83 82 78 64 61 53 44 41 35 33 33 35 36 37 38 38 43 38 39 40 40 41 43 44 44 42 39 36 35 34 31 30 29 26
59 71 78 74 85 85 93 87 75 76 88 81 75 75 73 74 79 83 75 62 55 40 31 26 28 30 32 35 36 39 39 41 44 48 51 51 51 51 49 50 52 50 46 46 43 39 37 35 33
64 79 79 78 71 67 78 82 59 65 63 78 87 83 83 84 83 86 84 59 47 34 27 24 25 28 32 35 37 39 41 41 42 46 51 58 62 61 58 58 56 54 53 51 50 51 49 44 42
72 71 75 54 66 58 66 71 80 63 82 94 92 92 94 91 90 90 66 42 36 32 29 28 29 31 33 36 38 41 43 43 46 48 52 55 62 66 66 66 64 62 56 56 59 61 50 48 48
62 69 67 72 57 64 73 91 61 87 100 101 98 98 92 93 85 63 49 38 33 32 29 29 30 32 35 38 40 44 46 50 51 51 52 55 59 65 69 71 69 68 64 62 65 58 52 53 56
66 66 65 68 63 80 86 81 96 89 92 97 99 93 90 83 65 51 40 35 35 33 31 28 32 36 38 40 43 48 53 57 56 60 58 60 61 62 66 67 70 73 65 57 37 52 55 54 70
69 77 77 70 69 83 83 88 104 89 90 97 95 86 78 61 47 39 33 31 33 36 36 36 37 41 43 47 50 55 63 61 61 59 64 65 67 69 72 72 74 74 77 75 60 61 60 54 48
71 82 86 73 61 67 80 97 101 87 90 84 84 74 59 49 42 36 32 29 33 34 34 35 35 39 43 46 51 55 61 60 60 61 64 64 71 74 75 77 79 78 80 80 78 73 69 70 61
63 70 78 85 68 62 77 95 87 93 78 75 70 67 53 40 34 33 32 27 31 34 37 38 39 41 44 48 53 58 57 61 63 67 67 69 72 74 76 78 80 82 81 83 81 77 68 69 66
71 59 63 69 80 86 65 97 102 78 75 77 72 66 47 34 29 29 30 31 31 37 39 42 43 44 47 51 53 60 60 64 65 69 71 72 72 74 75 76 78 81 81 81 82 80 76 67 67
68 52 59 65 74 79 69 70 74 77 78 79 65 56 46 39 32 29 29 33 37 44 45 39 43 44 47 52 55 59 62 64 66 68 72 71 71 73 74 76 78 79 79 80 81 83 78 72 71
44 52 59 63 66 85 66 53 66 71 74 76 58 51 41 38 36 38 40 38 39 40 44 41 43 47 51 56 59 62 65 68 70 72 73 73 73 74 74 75 78 81 81 81 82 84 84 78 70
45 51 72 75 70 73 49 54 58 58 61 63 53 51 48 43 36 42 43 45 42 40 43 43 48 50 54 58 62 63 65 67 68 71 74 77 76 75 76 78 81 81 83 84 83 83 86 84 72
41 44 56 77 73 66 54 56 50 42 45 46 45 41 43 44 42 40 41 43 45 46 46 47 51 54 56 59 61 63 65 66 66 69 72 74 76 78 78 79 81 83 83 84 82 79 79 78 70
41 47 45 56 56 65 52 45 37 30 33 38 40 38 37 39 41 43 43 44 46 48 52 53 56 57 58 60 62 64 66 69 70 70 71 72 74 77 78 81 81 81 82 82 83 81 73 70 67
39 28 47 45 62 64 51 46 39 29 28 30 33 35 40 43 43 46 49 50 51 53 54 55 56 58 59 61 63 64 64 66 68 69 72 74 76 77 78 79 80 80 80 81 83 85 71 65 62
41 45 45 40 44 51 55 46 28 26 21 21 27 31 38 43 45 49 52 54 54 54 54 56 57 57 60 61 62 63 67 68 69 70 70 72 75 75 76 77 78 79 80 80 82 83 73 56 55
49 50 41 47 48 45 47 52 29 20 18 21 26 32 39 43 48 51 55 56 56 55 56 56 58 59 60 61 63 65 67 68 69 71 70 70 71 72 73 75 75 77 78 79 81 83 77 59 53
Wind_Direction
344 342 352 345 337 335 329 329 338 334 333 333 330 342 355 342 331 325 337 345 0 23 60 95 120 113 97 43 359 17 49 56 52 61 66 68 71 75 76 78 79 80 85 87 88 76 63 47 38
346 351 345 342 330 323 324 331 344 325 323 317 323 332 321 323 328 336 338 354 11 28 43 71 143 163 154 167 344 350 15 50 61 67 69 72 74 78 80 80 82 84 86 86 85 71 53 43 34
353 347 334 331 326 323 322 319 319 316 315 318 320 328 331 331 340 354 330 353 6 14 22 20 132 189 198 209 226 240 306 27 75 93 89 83 86 86 85 86 86 86 82 82 84 73 56 38 31
344 337 335 322 317 322 323 314 317 311 312 317 323 340 345 326 335 334 337 352 357 355 355 349 326 259 242 245 245 245 234 225 197 134 120 105 98 96 94 94 90 85 80 80 79 75 65 48 40
339 329 315 314 311 320 327 321 320 319 323 322 322 323 328 327 326 347 351 354 345 344 348 350 336 310 278 250 240 243 246 240 231 216 188 156 135 116 107 104 98 88 82 80 78 73 66 55 44
325 328 312 307 308 313 318 321 323 325 326 322 318 326 328 319 335 341 338 336 337 347 342 336 339 311 292 265 246 238 241 242 240 232 224 211 192 172 143 120 111 100 85 76 72 69 59 52 40
325 322 313 311 307 304 316 322 319 318 319 324 316 317 322 326 329 332 330 333 329 334 340 335 329 319 302 284 267 252 247 242 239 239 238 234 223 211 199 178 152 132 101 71 60 52 40 39 32
337 331 320 318 312 308 325 316 322 317 302 319 327 324 318 322 336 338 327 327 326 321 324 324 320 318 314 295 278 263 253 247 244 243 242 242 239 232 225 228 232 217 192 152 90 8 6 13 6
335 319 315 314 316 317 314 309 316 311 310 307 316 318 319 325 317 317 316 319 320 315 311 313 310 307 306 305 294 279 265 256 250 248 248 253 258 254 249 252 252 241 228 233 246 287 318 333 344
317 312 311 318 318 307 296 307 306 311 304 303 304 299 316 315 318 310 308 308 309 311 310 311 310 306 304 301 300 291 281 275 270 267 262 262 266 267 265 264 258 256 252 254 266 277 284 305 319
308 302 308 305 302 308 305 299 303 311 305 302 298 293 293 311 310 307 302 306 303 302 305 305 306 307 309 305 301 297 286 277 274 273 271 269 272 273 270 273 271 272 271 279 277 280 282 285 293
302 304 302 303 306 302 299 301 300 301 300 299 299 297 300 299 302 307 306 303 301 296 298 303 304 305 309 310 307 300 295 279 274 274 274 274 274 274 273 272 275 274 274 272 273 277 279 278 282
301 301 301 299 301 299 301 301 298 296 300 303 302 302 300 301 302 304 302 301 299 295 298 297 302 304 305 307 308 307 301 289 282 276 274 274 274 275 276 276 276 275 274 274 275 274 276 276 277
305 301 299 302 299 299 295 297 301 302 299 302 307 308 310 310 308 305 305 297 295 292 296 300 304 307 308 309 310 309 310 302 291 284 281 279 278 278 277 277 278 278 277 276 274 272 273 274 275
307 299 300 302 305 307 307 303 303 311 316 309 306 308 309 309 309 305 306 296 290 288 290 297 306 313 310 307 308 309 309 307 301 296 293 286 281 279 278 278 277 276 275 273 273 273 275 276 276
303 303 301 305 312 312 313 301 304 313 313 308 309 309 308 307 306 303 305 293 286 282 286 295 301 307 309 307 306 307 308 308 305 301 295 292 288 287 283 278 277 277 274 274 274 272 271 274 275
305 300 302 304 311 308 308 301 309 310 311 309 308 308 308 306 309 310 308 296 283 285 285 292 302 305 305 304 301 303 307 307 304 302 300 297 294 290 287 287 283 280 279 276 274 274 269 275 273
301 301 303 303 309 305 303 300 303 311 312 311 309 310 309 307 307 309 307 303 297 293 293 296 302 306 307 305 303 303 303 303 302 300 298 297 296 294 291 289 288 286 285 284 262 264 274 276 272
300 299 300 304 308 305 304 303 304 315 315 312 310 312 312 312 315 313 311 306 300 300 299 297 300 306 308 304 301 301 301 300 299 300 300 297 296 294 292 290 288 288 285 285 286 283 284 277 267
296 297 299 307 312 308 307 304 307 316 317 316 315 316 312 311 311 313 309 308 306 302 305 307 306 308 310 309 308 307 305 301 301 302 301 302 298 295 292 289 287 287 286 285 285 284 285 283 280
296 298 302 303 312 312 310 305 312 319 325 326 324 322 315 306 305 311 314 318 312 307 305 308 308 311 316 316 312 308 308 303 300 300 300 301 299 297 294 291 288 286 285 283 283 284 282 283 284
296 303 305 306 309 307 316 307 311 320 327 332 332 335 340 334 330 325 317 315 311 304 308 303 309 312 319 318 317 313 309 303 302 302 301 302 301 298 297 294 291 288 286 284 283 282 283 281 281
299 305 306 308 309 310 310 310 312 322 321 328 335 341 347 347 336 335 326 320 312 305 301 307 309 319 327 323 326 317 312 307 304 304 302 303 303 301 299 297 294 291 288 287 285 283 282 280 277
306 307 309 311 310 304 309 305 314 322 324 328 337 342 344 342 336 334 322 323 324 314 305 308 315 325 327 325 326 322 316 312 305 303 301 301 302 302 301 299 296 292 292 290 289 286 282 280 276
301 303 304 305 306 306 317 312 315 326 333 343 342 342 342 343 345 334 322 318 322 314 320 315 320 321 320 326 326 324 320 317 313 304 300 299 299 301 301 299 296 297 294 293 293 290 285 282 276
293 295 299 303 305 310 317 311 315 337 348 358 359 358 358 350 354 346 324 321 315 313 317 320 320 319 328 334 332 331 326 323 317 313 307 304 302 300 300 300 299 296 298 297 297 293 289 284 281
305 297 306 303 306 307 310 315 327 338 351 359 6 3 360 5 350 351 333 326 317 323 322 322 322 325 333 332 331 334 331 325 321 314 310 310 307 304 302 301 301 302 302 300 297 294 293 288 282
299 306 307 304 303 303 309 307 309 322 342 348 0 359 12 12 346 343 337 325 316 323 324 326 328 328 328 328 332 341 338 331 327 321 313 310 307 307 305 305 305 304 303 302 300 297 296 293 284
298 295 301 302 300 302 306 309 317 319 331 340 346 341 342 353 359 341 335 327 320 318 321 328 327 328 331 328 332 341 337 336 336 332 324 316 311 310 309 308 306 306 305 305 302 301 301 295 284
284 286 280 290 296 298 303 304 316 319 325 334 333 337 336 345 341 338 344 326 319 316 323 326 330 329 331 333 335 340 340 340 341 338 332 326 321 318 316 312 310 310 307 308 306 302 305 298 290